Satellite: CP6
Catalog number: 35004
Epoch time:      10041.90604571
Element set:    0212
Inclination:      040.4595 deg
RA of node:       247.8706 deg
Eccentricity:    0.0022379
Arg of perigee:   152.5916 deg
Mean anomaly:     207.6086 deg
Mean motion:   15.42840241 rev/day
Decay rate:      9.655e-05 rev/day^2
Epoch rev:           04118
Checksum:              281

Satellite: AEROCUB3
Catalog number: 35005
Epoch time:      10042.83400969
Element set:     213
Inclination:      040.4684 deg
RA of node:       242.8755 deg
Eccentricity:    0.0020218
Arg of perigee:   157.3921 deg
Mean anomaly:     202.7789 deg
Mean motion:   15.43455333 rev/day
Decay rate:     2.0704e-04 rev/day^2
Epoch rev:            4132
Checksum:              269

Satellite: DRAGNSAT
Catalog number: 35690
Epoch time:      10042.65630175
Element set:     245
Inclination:      051.6334 deg
RA of node:       137.3604 deg
Eccentricity:    0.0002758
Arg of perigee:   035.3943 deg
Mean anomaly:     324.7254 deg
Mean motion:   15.99735782 rev/day
Decay rate:    1.54354e-03 rev/day^2
Epoch rev:            3115
Checksum:              290

Satellite: POLLUX
Catalog number: 35693
Epoch time:      10042.74422212
Element set:     248
Inclination:      051.6385 deg
RA of node:       138.7650 deg
Eccentricity:    0.0003587
Arg of perigee:   061.3151 deg
Mean anomaly:     298.8272 deg
Mean motion:   15.96372977 rev/day
Decay rate:     8.6672e-04 rev/day^2
Epoch rev:            3111
Checksum:              305

Satellite: CASTOR
Catalog number: 35694
Epoch time:      10042.50519728
Element set:     188
Inclination:      051.6392 deg
RA of node:       144.8086 deg
Eccentricity:    0.0003702
Arg of perigee:   055.3990 deg
Mean anomaly:     304.7530 deg
Mean motion:   15.86917423 rev/day
Decay rate:     3.3409e-04 rev/day^2
Epoch rev:            3101
Checksum:              287

Satellite: METEOR-M
Catalog number: 35865
Epoch time:      10042.09857683
Element set:     124
Inclination:      098.7768 deg
RA of node:       096.6983 deg
Eccentricity:    0.0002932
Arg of perigee:   026.4040 deg
Mean anomaly:     333.7262 deg
Mean motion:   14.21828617 rev/day
Decay rate:       1.76e-06 rev/day^2
Epoch rev:            2080
Checksum:              305

Satellite: RS-38
Catalog number: 35869
Epoch time:      10042.36481610
Element set:     127
Inclination:      098.7776 deg
RA of node:       096.9842 deg
Eccentricity:    0.0004993
Arg of perigee:   018.5817 deg
Mean anomaly:     341.5529 deg
Mean motion:   14.21975152 rev/day
Decay rate:       1.76e-06 rev/day^2
Epoch rev:            2084
Checksum:              329

/EX


_______________________________________________
Via the Keps mailing list courtesy of AMSAT-NA
http://amsat.org/mailman/listinfo/keps

--- ViaMAIL!/WC v1.60d
 * Origin: Chowdanet (401-724-4410) telnet://chowdanet.com  (1:323/120)